User: anonymous   Login
Location: Chassagnes
(44.4047°N, 4.1657°E)
Time: 06:39:19
(UTC+00:00)
Language:

Atlas Centaur 2 - Orbit

View from above orbital plane
View from above orbital plane
View from above satellite
View from above satellite

Ground track
Ground track

The orbit data is extracted from the following two-line orbital elements,

1 00694U 63047A   21015.42436953  .00000507  00000-0  50173-4 0  9996
2 00694  30.3576 163.6031 0585396 227.3918 127.5858 14.02738125866888
Epoch (UTC): 15 January 2021 10:11:05
Eccentricity: 0.0585396
inclination: 30.3576°
perigee height: 459 km
apogee height: 1309 km
right ascension of ascending node: 163.6031°
argument of perigee: 227.3918°
revolutions per day: 14.02738125
mean anomaly at epoch: 127.5858°
orbit number at epoch: 86688

The dashed part of the orbit path shows where the satellite is in the earth's shadow,  

DLR